TimeMST,TemperatureF,Dew PointF,Humidity,Sea Level PressureIn,VisibilityMPH,Wind Direction,Wind SpeedMPH,Gust SpeedMPH,PrecipitationIn,Events,Conditions,WindDirDegrees,DateUTC
12:15 AM,14.0,12.2,93,30.30,10.0,Calm,Calm,-,N/A,,Overcast,0,2013-12-14 07:15:00
12:55 AM,14.0,12.2,93,30.31,7.0,Calm,Calm,-,N/A,,Overcast,0,2013-12-14 07:55:00
1:16 AM,15.8,14.0,93,30.30,5.0,Calm,Calm,-,N/A,,Overcast,0,2013-12-14 08:16:00
1:35 AM,14.0,12.2,93,30.31,7.0,ESE,4.6,-,N/A,,Overcast,110,2013-12-14 08:35:00
1:55 AM,15.8,14.0,93,30.32,9.0,Calm,Calm,-,N/A,,Overcast,0,2013-12-14 08:55:00
2:15 AM,15.8,14.0,93,30.32,7.0,NW,6.9,-,N/A,,Overcast,320,2013-12-14 09:15:00
2:35 AM,15.8,14.0,93,30.33,10.0,NNW,4.6,-,N/A,,Overcast,340,2013-12-14 09:35:00
2:55 AM,12.2,10.4,92,30.33,9.0,NNW,4.6,-,N/A,,Overcast,340,2013-12-14 09:55:00
3:16 AM,12.2,10.4,92,30.34,9.0,Calm,Calm,-,N/A,,Overcast,0,2013-12-14 10:16:00
3:35 AM,10.4,8.6,92,30.34,10.0,NE,3.5,-,N/A,,Overcast,40,2013-12-14 10:35:00
3:55 AM,8.6,8.6,100,30.34,10.0,NE,3.5,-,N/A,,Overcast,40,2013-12-14 10:55:00
4:15 AM,8.6,8.6,100,30.34,10.0,Calm,Calm,-,N/A,,Overcast,0,2013-12-14 11:15:00
4:35 AM,10.4,8.6,92,30.33,10.0,Calm,Calm,-,N/A,,Overcast,0,2013-12-14 11:35:00
4:55 AM,12.2,10.4,92,30.34,5.0,Calm,Calm,-,N/A,,Overcast,0,2013-12-14 11:55:00
5:15 AM,8.6,8.6,100,30.35,3.0,NE,3.5,-,N/A,,Overcast,40,2013-12-14 12:15:00
5:35 AM,10.4,8.6,92,30.36,3.0,Calm,Calm,-,N/A,,Overcast,0,2013-12-14 12:35:00
5:55 AM,10.4,8.6,92,30.36,3.0,North,3.5,-,N/A,,Overcast,350,2013-12-14 12:55:00
6:15 AM,10.4,8.6,92,30.36,5.0,North,4.6,-,N/A,,Overcast,10,2013-12-14 13:15:00
6:35 AM,8.6,8.6,100,30.37,3.0,NNE,3.5,-,N/A,,Overcast,20,2013-12-14 13:35:00
6:51 AM,8.6,8.6,100,30.08,8.0,NNE,3.5,-,N/A,,Mostly Cloudy,30,2013-12-14 13:51:00
6:55 AM,8.6,8.6,100,30.38,7.0,NNE,4.6,-,N/A,,Overcast,20,2013-12-14 13:55:00
7:55 AM,10.4,8.6,92,30.38,10.0,North,3.5,-,N/A,,Mostly Cloudy,360,2013-12-14 14:55:00
8:51 AM,12.2,10.4,92,30.40,10.0,North,4.6,-,N/A,,Mostly Cloudy,360,2013-12-14 15:51:00
9:51 AM,19.4,17.6,93,30.41,10.0,Calm,Calm,-,N/A,,Mostly Cloudy,0,2013-12-14 16:51:00
10:53 AM,21.2,17.6,86,30.42,10.0,Calm,Calm,-,N/A,,Mostly Cloudy,0,2013-12-14 17:53:00
11:54 AM,24.8,19.4,80,30.40,10.0,Calm,Calm,-,N/A,,Scattered Clouds,0,2013-12-14 18:54:00
12:56 PM,28.4,21.2,74,30.39,10.0,South,10.4,-,N/A,,Mostly Cloudy,190,2013-12-14 19:56:00
1:56 PM,30.2,23.0,75,30.35,10.0,SSW,12.7,-,N/A,,Mostly Cloudy,200,2013-12-14 20:56:00
2:51 PM,28.4,23.0,80,30.37,6.0,South,13.8,17.3,N/A,Snow,Light Snow,190,2013-12-14 21:51:00
3:52 PM,26.6,24.8,93,30.37,10.0,South,15.0,-,N/A,Snow,Light Snow,170,2013-12-14 22:52:00
4:51 PM,26.6,24.8,93,30.38,5.0,South,12.7,26.5,N/A,Snow,Light Snow,180,2013-12-14 23:51:00
5:52 PM,26.6,24.8,93,30.38,10.0,SSW,3.5,-,N/A,,Overcast,210,2013-12-15 00:52:00
6:52 PM,26.6,24.8,93,30.36,10.0,SSE,9.2,-,N/A,,Mostly Cloudy,150,2013-12-15 01:52:00
7:51 PM,24.8,23.0,93,30.36,9.0,NW,5.8,-,N/A,,Mostly Cloudy,320,2013-12-15 02:51:00
9:15 PM,24.8,23.0,93,30.37,10.0,NW,5.8,-,N/A,,Overcast,320,2013-12-15 04:15:00
9:35 PM,24.8,23.0,93,30.37,10.0,ENE,4.6,-,N/A,,Overcast,70,2013-12-15 04:35:00
9:55 PM,24.8,23.0,93,30.37,10.0,North,11.5,-,N/A,,Overcast,360,2013-12-15 04:55:00
10:15 PM,24.8,23.0,93,30.37,10.0,NNW,4.6,-,N/A,,Overcast,330,2013-12-15 05:15:00
10:35 PM,24.8,23.0,93,30.38,10.0,North,8.1,-,N/A,,Overcast,360,2013-12-15 05:35:00
10:55 PM,24.8,23.0,93,30.38,10.0,North,6.9,-,N/A,,Overcast,360,2013-12-15 05:55:00
11:15 PM,24.8,23.0,93,30.38,9.0,Calm,Calm,-,N/A,,Overcast,0,2013-12-15 06:15:00
11:35 PM,24.8,23.0,93,30.39,10.0,Calm,Calm,-,N/A,,Overcast,0,2013-12-15 06:35:00